Location: Grandview
(34.8900°N, 117.1058°W)
Time: 02:16:05
(UTC-07:00)

Envisat - Pass Details

Date: 08 October 2017
Orbit: 764 x 766 km, 98.2° (Epoch: 18 October)

Event Time Altitude Azimuth Distance (km) Brightness Sun altitude
Exits shadow 21:01:51 34° 327° (NNW) 1,253 4.4 -33.2°
Drops below altitude 10° 21:04:45 10° 340° (NNW) 2,305 5.8 -33.8°
Sets 21:07:05 0° 344° (NNW) 3,235 6.6 -34.3°
